Regional Weather Roundup
Issued by NWS

Home | Current Version | Previous Version | Graphics & Text | Print | Product List | Glossary Off
Versions: 1 2 3 4 5 6 7 8 9 10 11 12 13 14 15 16 17 18 19 20 21 22 23 24 25 26 27 28 29 30 31 32 33 34 35 36 37 38 39 40 41 42 43 44 45 46 47 48 49 50

000
ASUS43 KTOP 110359
RWRKS

WEATHER ROUNDUP FOR KANSAS
NATIONAL WEATHER SERVICE GOODLAND KS
1100 PM CDT THU JUL 10 2014

NOTE:  "FAIR" INDICATES FEW OR NO CLOUDS BELOW 12,000 FEET WITH NO
SIGNIFICANT WEATHER AND/OR OBSTRUCTIONS TO VISIBILITY.

KSZ001>006-013>018-027>032-041>047-110500-
NORTHWEST KANSAS

CITY           SKY/WX    TMP DP  RH WIND       PRES   REMARKS
GOODLAND       CLEAR     77  68  73 SE14      29.95R
HAYS           CLEAR    N/A N/A N/A SE13      29.96S
HILL CITY      CLEAR     76  68  76 SE13      29.95R
RUSSELL        CLEAR     74  67  78 SE15      29.95R
$$

KSZ061>065-074>080-084>089-110500-
SOUTHWEST KANSAS

CITY           SKY/WX    TMP DP  RH WIND       PRES   REMARKS
DODGE CITY     CLEAR     74  69  85 SE16      29.97R
ELKHART          N/A     78  51  38 S14         N/A
GARDEN CITY    CLEAR     78  67  68 SE15      29.96R
GREAT BEND     PTCLDY    73  66  78 SE17      29.96S
LIBERAL        CLEAR     82  52  34 S13       29.99R
$$

KSZ066>073-081>083-090>101-110500-
SOUTHEAST KANSAS

CITY           SKY/WX    TMP DP  RH WIND       PRES   REMARKS
CHANUTE        CLEAR     72  66  81 SE8       30.05R
COFFEYVILLE    PTCLDY    72  67  84 SE7       30.05R
HUTCHINSON     MOCLDY    74  66  76 SE15G21   29.99R
MEDICINE LODGE   N/A     74  71  91 SE12      29.98R
NEWTON         MOCLDY    72  63  73 SE14G21   30.04R
PARSONS        CLEAR     72  67  84 S3        30.06R
WICHITA INTL   PTCLDY    73  66  78 SE16      30.00R
WICHITA JABRA  PTCLDY    72  67  84 SE13      30.01R
WINFIELD       PTCLDY    72  69  90 SE10      30.03R
$$

KSZ007>012-019>026-033>040-048>060-102>105-110500-
NORTHEAST KANSAS

CITY           SKY/WX    TMP DP  RH WIND       PRES   REMARKS
CONCORDIA      CLEAR     74  66  76 SE13      29.99R
EMPORIA        CLEAR     72  66  81 SE10      30.03R
LAWRENCE       CLEAR     71  65  81 SE7       30.05R
MANHATTAN      CLEAR     74  65  73 CALM      30.01R
OLATHE IND     CLEAR     73  63  70 SE9       30.07R
OLATHE EXE     CLEAR     71  64  78 SE9       30.06R
SALINA         CLEAR     77  67  71 SE13      29.98R
TOPEKA BILLARD CLEAR     74  66  76 SE8       30.04R
TOPEKA FORBES  CLEAR     73  66  78 SE8       30.04R
$$



USA.gov is the U.S. government's official web portal to all federal, state and local government web resources and services.